Temperature
8 6 6 7 7 8 8 7 8 8 8 8 8 8 8 9 8 8 9 9 10 11 11 11 11 11 10 10 10 10 10 10 10 10 10 10 10 10 10 10 10 10 10 11
6 7 7 7 7 8 8 8 7 7 8 8 8 8 8 8 8 8 8 9 10 10 10 11 10 11 10 10 10 10 10 10 10 10 10 10 10 10 10 10 10 10 10 10
7 7 7 7 7 7 7 7 7 7 7 7 8 8 8 8 8 9 9 10 10 10 10 11 11 11 10 10 10 10 10 10 10 10 10 9 9 9 9 9 9 10 10 10
6 7 7 7 7 7 7 7 7 7 7 6 7 7 8 7 7 7 8 9 10 10 10 10 10 10 10 10 10 10 10 10 9 9 9 9 9 9 9 9 9 9 9 9
6 7 7 7 7 7 7 7 7 7 7 6 6 6 7 7 7 7 7 9 10 10 10 10 10 10 10 10 10 10 10 9 9 9 9 9 9 9 9 9 9 9 9 9
6 7 7 7 7 7 6 6 6 5 5 7 6 6 7 6 7 8 7 8 9 10 10 10 10 10 10 10 10 9 9 9 9 9 9 9 9 9 9 9 9 9 9 8
6 7 7 7 6 7 6 6 6 6 5 6 6 6 7 7 7 7 7 8 9 9 10 10 10 10 10 10 9 9 9 9 9 9 9 8 8 8 8 8 8 8 8 8
6 6 6 6 6 6 6 7 6 7 7 6 5 6 7 7 7 7 8 8 9 9 9 10 10 9 9 9 9 9 9 9 9 8 8 8 8 8 8 8 8 8 8 8
6 6 6 6 6 6 6 5 6 5 5 6 6 5 6 7 6 6 7 7 8 9 9 9 9 9 9 9 9 9 9 8 8 8 8 8 8 8 7 7 7 7 7 7
6 6 6 6 6 6 6 5 4 5 6 7 7 6 7 8 7 6 6 6 8 9 9 9 9 9 9 9 9 9 8 8 8 8 7 7 7 7 7 7 7 7 7 6
5 5 5 5 5 5 5 5 5 4 5 6 7 7 7 7 7 6 6 7 8 8 9 9 8 8 8 8 8 8 8 8 8 7 7 7 7 7 6 6 6 6 6 6
4 4 4 5 5 5 5 5 4 5 5 4 4 6 7 6 6 6 6 7 8 8 8 8 8 8 8 8 8 8 7 7 7 7 7 7 7 6 6 6 6 6 6 6
4 4 4 5 5 4 5 4 4 4 4 3 4 6 6 5 5 6 6 7 7 8 8 8 8 7 7 7 7 7 7 7 7 6 6 6 6 6 6 6 6 5 5 5
5 4 5 6 6 4 4 4 4 4 4 3 4 5 6 6 5 5 6 6 7 7 7 7 7 7 7 7 7 7 7 6 6 6 6 6 6 6 6 5 5 5 5 5
4 3 3 4 4 4 4 4 4 4 4 4 4 4 6 5 5 5 6 6 6 6 6 6 6 6 6 6 6 6 6 6 6 6 6 6 5 5 5 5 5 5 4 4
2 3 3 3 4 4 4 4 4 4 4 4 4 4 5 5 5 5 5 5 5 6 6 6 6 6 6 6 6 6 6 6 5 5 5 5 5 5 4 4 4 4 4 4
1 2 2 3 3 3 4 4 4 4 3 4 4 5 4 4 4 4 5 5 5 5 6 6 6 5 6 6 6 5 5 5 5 5 5 4 4 4 4 4 4 4 3 3
1 2 2 2 3 3 5 4 4 4 4 3 4 4 4 4 4 5 5 5 5 5 5 5 5 5 5 5 5 5 5 4 4 4 4 4 4 4 3 3 3 3 3 3
1 2 2 2 2 3 4 3 3 3 3 3 3 3 3 3 3 3 4 5 5 5 5 5 5 5 5 5 4 4 4 4 4 4 3 3 3 3 3 3 3 2 2 2
1 1 1 2 2 3 4 3 3 4 3 3 2 2 2 2 2 2 4 4 4 4 4 4 4 4 4 4 4 4 3 3 3 3 3 3 3 2 2 2 2 2 2 2
0 1 1 1 2 2 2 2 3 3 3 2 2 2 2 2 2 3 3 3 3 3 3 3 3 3 3 3 3 3 3 3 3 3 2 2 2 2 2 2 2 1 1 1
0 0 1 1 1 2 2 2 2 2 2 3 2 2 2 2 2 2 2 2 3 2 2 2 3 3 3 2 2 2 3 2 2 2 2 2 2 1 1 1 1 1 1 0
-0 0 0 1 1 1 2 2 2 3 2 2 2 2 2 2 2 2 2 2 2 2 2 2 2 2 2 2 2 2 2 2 1 1 1 1 1 1 1 0 0 0 -0 -0
-1 -1 -0 -0 0 0 1 2 2 2 2 2 2 2 2 2 1 1 1 1 1 1 1 1 1 1 1 1 1 1 1 1 1 1 1 1 0 0 0 -0 -0 -0 -0 -1
-1 -1 -1 -1 -1 -0 1 1 2 2 2 1 1 1 1 1 1 1 1 1 1 1 1 1 1 1 1 1 1 0 0 0 0 0 0 -0 -0 -0 -0 -0 -1 -1 -1 -1
-2 -2 -1 -1 -0 -0 0 1 1 1 1 1 1 1 0 0 0 0 0 0 0 0 0 0 0 0 0 0 0 0 -0 -0 -1 -1 -1 -1 -1 -1 -1 -1 -1 -1 -1 -1
Wind_Speed
2 2 5 8 8 5 4 4 5 5 3 2 6 10 10 7 5 6 6 5 5 5 4 2 3 4 4 4 4 5 6 6 6 4 4 3 2 2 2 2 4 4 5 5
3 6 7 4 4 3 3 3 4 4 2 2 5 10 9 6 6 6 6 6 6 4 3 3 3 4 5 5 5 5 5 6 6 4 4 3 3 2 2 2 3 4 4 5
7 4 3 4 3 4 4 6 5 3 4 2 4 8 6 4 3 3 4 5 5 6 5 4 4 4 5 5 6 6 5 6 5 6 5 4 4 3 2 1 1 2 3 4
5 3 2 4 5 6 6 5 5 2 1 3 1 5 8 4 4 5 5 5 6 5 5 5 5 5 5 5 5 5 5 5 5 6 6 6 4 3 2 2 1 1 2 3
5 3 4 5 6 6 5 2 3 1 2 2 1 2 9 2 5 7 6 6 6 5 6 6 6 6 5 5 5 5 5 5 5 6 6 6 4 3 2 2 2 2 1 2
3 2 4 5 2 5 4 4 4 4 3 3 4 5 7 5 6 5 5 5 6 5 5 4 4 4 3 4 4 4 5 5 5 6 5 6 6 4 4 3 2 1 1 1
3 3 2 2 3 2 3 4 3 3 1 6 3 4 9 7 5 5 5 5 5 5 5 5 5 5 5 5 5 5 5 5 5 6 5 6 6 6 5 4 3 3 1 1
4 5 5 4 5 5 5 6 6 5 5 5 2 7 8 5 4 3 3 3 4 4 5 5 6 6 6 6 5 5 5 5 6 6 5 4 5 4 3 3 3 4 3 3
7 6 1 3 2 7 6 4 4 5 1 2 6 7 8 2 2 1 0 1 3 4 4 5 5 5 6 6 6 6 6 5 5 5 5 4 4 4 4 3 3 2 2 2
6 4 3 1 2 0 5 7 5 4 4 4 6 5 5 4 3 2 1 2 2 2 3 3 3 3 4 4 4 4 5 5 5 5 5 4 4 4 4 3 4 3 3 3
4 4 1 1 6 7 4 4 4 4 4 4 4 7 5 6 4 3 3 3 3 3 3 3 3 3 3 3 3 3 4 4 4 5 4 4 4 4 3 3 4 4 3 3
5 4 3 5 3 4 5 6 7 5 5 4 3 7 4 3 2 2 2 2 2 2 2 2 2 3 3 3 3 4 3 3 4 4 4 3 3 3 3 3 3 3 4 4
5 5 2 1 1 1 3 5 5 4 4 5 5 7 2 1 1 1 1 1 1 1 1 1 2 2 2 3 3 3 3 3 3 3 4 3 3 4 4 4 4 4 4 4
3 4 7 10 6 6 5 6 7 6 5 6 9 8 6 4 3 3 2 1 0 1 1 1 2 2 2 2 3 3 2 3 3 3 3 3 4 4 4 4 4 4 4 4
3 4 5 6 4 4 6 9 11 11 10 10 9 9 10 6 4 3 2 1 1 1 1 1 1 2 2 2 2 2 2 2 3 3 3 3 3 3 3 3 3 3 4 4
3 3 2 4 3 4 6 9 12 12 10 9 7 9 6 4 2 2 3 3 3 2 2 2 1 2 2 3 3 2 2 2 3 3 3 3 2 2 3 3 3 3 3 3
4 4 3 4 2 1 8 10 11 7 7 8 11 10 3 3 4 5 4 4 4 4 3 3 3 3 3 4 3 3 3 2 2 3 3 3 3 3 3 3 3 3 4 3
6 5 3 2 2 8 7 3 8 8 6 7 5 5 5 5 3 3 3 4 4 4 3 3 3 3 2 2 2 2 2 2 2 3 3 3 3 3 3 3 3 4 3 3
7 6 4 4 5 6 5 2 5 6 5 5 7 5 3 1 2 2 2 2 3 3 3 3 3 2 2 2 2 2 2 2 3 3 4 4 4 4 4 4 4 4 3 4
3 5 5 4 5 7 4 1 2 4 3 1 4 4 3 3 1 4 2 1 1 1 1 1 1 1 1 2 2 2 3 3 5 5 5 4 4 5 5 6 5 4 4 5
3 3 6 6 5 5 3 1 3 5 4 1 2 3 3 3 4 2 1 1 0 0 1 0 0 0 2 2 2 3 4 5 5 4 3 3 4 4 5 5 4 4 4 4
6 5 5 4 4 6 1 4 4 3 0 1 1 1 2 2 1 0 0 1 1 1 1 0 0 1 2 1 2 3 5 5 3 3 3 4 4 4 3 4 4 4 4 4
5 5 4 5 4 2 1 2 1 1 1 0 1 1 2 1 1 0 0 1 0 0 1 1 0 2 2 1 2 3 5 3 2 3 4 4 4 3 4 4 4 4 4 4
2 1 2 2 2 1 1 1 1 1 0 0 1 1 2 1 1 1 1 1 1 1 1 1 1 2 4 3 3 4 4 2 2 3 4 4 3 4 4 4 4 5 5 5
3 1 1 2 2 2 2 1 0 1 1 2 1 1 1 1 1 1 2 2 2 2 2 1 2 3 5 4 4 4 4 2 3 4 4 4 4 4 4 4 5 6 6 7
2 3 3 4 4 2 3 2 1 1 1 1 1 2 1 1 1 1 2 2 2 3 3 3 3 4 5 5 5 5 4 3 3 4 4 4 4 4 4 4 4 7 9 11
Wind_Direction
132 125 209 215 207 207 190 207 247 257 271 267 255 268 274 270 241 242 241 233 231 237 239 204 184 164 158 159 161 165 147 144 139 132 129 121 119 102 80 72 78 84 89 92
99 231 230 208 197 194 195 226 256 290 299 254 276 278 272 256 238 231 227 224 222 227 226 195 174 165 173 171 169 162 158 153 151 147 139 127 123 111 107 80 73 77 83 88
189 224 182 166 185 192 218 208 221 244 326 348 322 304 280 269 243 236 226 217 217 212 214 205 187 190 183 182 178 173 166 157 151 138 120 108 94 86 88 92 86 64 92 93
227 243 168 178 204 182 235 218 197 205 8 301 26 294 287 272 274 253 236 224 224 221 212 203 192 194 196 197 178 166 162 156 152 146 145 146 147 157 174 162 147 101 97 98
233 200 187 206 212 182 210 162 157 170 160 310 283 222 284 295 266 258 245 230 225 220 210 204 196 197 197 183 171 166 157 154 153 154 156 149 148 156 145 134 130 120 96 104
241 222 202 206 192 169 153 81 63 59 81 273 227 192 276 242 231 248 244 230 216 210 206 203 193 177 169 153 151 149 152 157 154 151 152 155 159 160 154 156 154 144 113 95
270 255 228 161 115 114 119 105 43 357 330 250 209 209 252 254 243 231 239 233 213 200 191 191 184 175 171 162 157 156 154 161 159 156 162 168 169 168 175 179 176 168 163 190
193 250 218 192 174 171 183 154 164 198 227 269 241 236 254 265 279 264 245 221 193 196 195 195 190 180 179 175 168 166 164 166 164 165 171 168 166 169 178 181 179 185 191 199
186 234 238 196 181 146 151 188 170 140 151 258 261 277 299 268 309 316 259 170 194 200 199 197 189 181 178 181 183 177 171 169 171 172 168 166 169 172 177 177 177 186 191 192
165 213 241 195 105 50 157 147 124 147 173 246 277 266 251 255 255 254 217 218 226 203 192 190 190 189 186 185 180 169 171 173 171 169 172 172 173 176 173 170 185 192 195 191
160 175 247 158 191 182 145 154 157 154 176 183 251 268 231 216 210 209 228 231 219 206 195 187 185 178 171 159 159 163 165 161 167 172 170 164 172 170 169 181 195 196 197 195
163 147 215 235 238 191 181 177 158 169 216 195 206 265 285 216 221 207 249 263 234 212 190 175 170 153 152 161 164 169 169 166 178 175 169 174 178 168 177 198 205 198 200 203
156 151 146 334 316 172 200 190 178 148 143 176 193 256 311 40 1 343 298 292 250 186 158 138 141 154 164 169 166 168 172 175 169 160 166 178 187 184 195 205 205 204 201 201
157 176 198 211 212 183 207 206 187 166 189 210 222 242 279 295 309 323 325 314 223 178 162 153 170 184 185 180 170 167 174 171 165 162 172 191 206 207 209 206 205 210 201 199
140 210 227 248 245 202 217 214 199 204 205 209 227 226 245 248 250 264 255 227 187 208 198 201 201 205 204 198 186 175 176 169 165 165 185 212 215 205 203 208 212 208 204 210
161 205 224 263 234 226 244 229 214 218 217 227 241 253 248 238 233 237 217 199 208 230 231 227 222 213 214 213 207 193 193 186 166 175 201 210 200 198 204 209 206 203 211 214
184 174 186 247 248 277 251 221 204 204 205 197 224 236 203 216 220 226 221 206 210 222 227 224 222 224 229 225 209 204 205 184 171 191 206 203 198 206 214 210 202 213 219 215
189 183 187 206 164 230 244 203 191 198 214 206 216 226 209 217 233 243 220 206 215 223 226 233 233 237 244 231 215 198 181 182 195 210 218 212 201 212 214 205 215 226 223 221
198 188 186 189 219 260 279 228 171 186 232 214 213 224 216 136 53 314 252 205 207 221 230 231 228 230 229 224 203 176 197 203 212 225 228 224 213 216 217 221 228 231 226 232
169 186 186 186 200 229 246 253 206 145 241 255 196 212 193 128 184 256 271 295 263 263 249 235 229 203 211 231 185 181 215 219 227 230 230 224 218 218 223 227 232 236 228 234
155 189 207 209 220 251 272 287 123 167 234 232 195 204 178 186 210 229 301 317 177 227 310 35 122 201 235 224 186 215 231 236 238 235 234 230 222 225 229 231 234 231 232 236
182 183 196 189 210 249 267 118 165 207 162 132 141 157 154 176 191 313 16 352 48 28 356 31 47 295 286 230 194 230 249 252 246 234 236 237 231 230 231 221 232 227 223 233
202 196 185 192 214 274 144 165 218 136 103 110 154 172 146 154 204 242 277 311 283 290 304 308 254 295 304 277 215 241 262 255 241 243 247 248 244 237 226 219 226 233 225 230
271 193 158 213 271 308 309 313 351 72 108 355 139 125 131 157 246 293 299 310 304 292 288 289 295 294 298 296 278 262 267 251 234 250 257 251 242 245 237 228 221 224 228 232
245 184 178 232 269 348 346 311 271 26 46 54 54 77 143 164 288 279 284 292 296 294 291 281 271 276 284 291 287 283 268 239 247 256 256 253 246 241 242 240 233 230 232 229
242 202 194 224 223 200 260 298 321 38 353 3 32 23 36 132 238 302 292 287 292 294 294 292 282 279 284 287 286 285 270 241 239 259 258 253 249 245 242 248 269 253 246 254
Height
1487 1491 1492 1490 1491 1491 1493 1494 1494 1491 1488 1488 1486 1483 1478 1476 1476 1475 1475 1476 1477 1479 1481 1483 1484 1486 1487 1489 1491 1493 1494 1496 1498 1500 1503 1505 1507 1509 1511 1513 1515 1516 1517 1518
1489 1489 1485 1487 1489 1490 1491 1493 1492 1490 1487 1487 1486 1481 1475 1472 1472 1471 1471 1472 1474 1476 1478 1480 1481 1483 1485 1487 1489 1490 1493 1494 1496 1499 1501 1504 1506 1508 1510 1512 1513 1514 1515 1516
1485 1484 1482 1485 1488 1489 1490 1491 1491 1491 1489 1487 1487 1481 1474 1470 1469 1469 1469 1469 1471 1473 1475 1477 1479 1481 1483 1484 1486 1488 1490 1492 1495 1497 1500 1502 1504 1506 1509 1510 1512 1513 1514 1515
1484 1481 1482 1483 1485 1486 1488 1486 1488 1489 1492 1494 1491 1492 1475 1471 1469 1466 1466 1467 1468 1470 1472 1474 1476 1478 1480 1482 1484 1486 1489 1491 1494 1496 1498 1500 1502 1504 1507 1509 1510 1511 1512 1513
1481 1480 1480 1481 1481 1482 1484 1485 1487 1489 1492 1495 1493 1494 1479 1472 1469 1465 1463 1463 1465 1467 1469 1471 1473 1476 1478 1480 1482 1485 1487 1489 1492 1494 1496 1498 1501 1503 1505 1506 1508 1509 1510 1511
1478 1477 1478 1477 1478 1480 1483 1486 1490 1494 1496 1496 1491 1494 1480 1472 1464 1461 1460 1460 1462 1464 1467 1469 1471 1473 1476 1478 1480 1483 1485 1487 1490 1492 1494 1496 1498 1500 1502 1504 1505 1506 1508 1509
1478 1476 1475 1475 1478 1480 1482 1489 1498 1497 1502 1494 1488 1488 1475 1462 1459 1458 1458 1458 1460 1462 1464 1466 1469 1471 1473 1475 1478 1480 1483 1485 1487 1490 1492 1494 1496 1498 1500 1502 1503 1504 1505 1507
1478 1477 1473 1473 1474 1477 1480 1482 1492 1493 1494 1491 1489 1484 1467 1458 1456 1455 1456 1456 1458 1460 1462 1464 1466 1469 1471 1473 1476 1478 1480 1482 1485 1487 1489 1492 1494 1496 1498 1499 1501 1502 1503 1504
1473 1473 1470 1470 1470 1472 1478 1483 1482 1491 1494 1493 1485 1477 1464 1456 1455 1455 1455 1455 1456 1458 1460 1462 1465 1467 1469 1472 1474 1476 1478 1480 1482 1485 1487 1489 1491 1493 1495 1496 1498 1499 1500 1501
1466 1472 1469 1469 1470 1472 1473 1477 1486 1488 1489 1485 1477 1474 1466 1456 1455 1454 1454 1454 1455 1457 1459 1461 1463 1465 1468 1470 1472 1474 1476 1478 1480 1482 1484 1486 1489 1490 1492 1493 1495 1496 1497 1498
1464 1470 1472 1471 1470 1470 1474 1477 1478 1484 1484 1484 1481 1470 1455 1453 1452 1453 1453 1454 1454 1456 1458 1460 1462 1464 1466 1468 1470 1472 1474 1476 1478 1480 1482 1484 1486 1487 1489 1490 1491 1493 1494 1494
1463 1469 1472 1469 1466 1465 1467 1470 1475 1478 1483 1487 1484 1471 1451 1451 1451 1452 1452 1453 1454 1455 1457 1459 1461 1463 1464 1466 1468 1470 1472 1473 1475 1477 1479 1481 1483 1484 1485 1487 1488 1489 1490 1491
1460 1465 1470 1468 1470 1469 1467 1467 1469 1473 1479 1486 1483 1467 1451 1451 1451 1451 1452 1452 1453 1454 1456 1458 1460 1461 1462 1464 1466 1468 1469 1471 1473 1475 1476 1478 1479 1480 1482 1483 1484 1485 1486 1487
1455 1460 1461 1458 1455 1459 1463 1464 1466 1470 1475 1478 1472 1461 1453 1451 1451 1451 1451 1452 1452 1454 1455 1456 1458 1459 1461 1462 1463 1465 1467 1469 1470 1471 1473 1474 1475 1477 1478 1479 1480 1481 1482 1483
1454 1457 1457 1454 1453 1455 1455 1456 1460 1462 1462 1465 1460 1459 1451 1450 1451 1451 1451 1451 1452 1453 1454 1455 1456 1458 1459 1460 1461 1463 1465 1466 1467 1468 1469 1470 1472 1473 1474 1475 1476 1477 1477 1478
1454 1456 1455 1455 1453 1453 1452 1451 1452 1453 1454 1456 1455 1453 1448 1448 1449 1449 1449 1450 1450 1451 1452 1453 1454 1456 1457 1458 1459 1460 1461 1463 1464 1464 1465 1467 1468 1469 1470 1471 1471 1472 1473 1473
1453 1455 1456 1455 1453 1451 1449 1444 1445 1446 1446 1448 1448 1445 1446 1447 1447 1447 1447 1448 1448 1449 1451 1451 1452 1453 1454 1455 1456 1457 1458 1459 1460 1461 1462 1463 1463 1464 1465 1466 1466 1467 1468 1468
1450 1452 1453 1454 1454 1451 1437 1435 1435 1438 1439 1441 1441 1441 1442 1443 1444 1445 1445 1445 1446 1447 1448 1449 1449 1450 1451 1452 1453 1454 1455 1456 1456 1457 1458 1458 1459 1460 1460 1461 1462 1462 1463 1463
1444 1448 1451 1451 1450 1443 1436 1434 1435 1437 1437 1437 1438 1438 1440 1441 1443 1443 1443 1444 1444 1445 1446 1446 1447 1448 1448 1449 1450 1450 1451 1452 1453 1453 1454 1454 1455 1455 1455 1456 1457 1457 1458 1458
1442 1443 1447 1448 1446 1440 1433 1432 1431 1434 1437 1436 1436 1437 1438 1440 1444 1443 1441 1441 1441 1442 1443 1443 1444 1445 1445 1446 1447 1447 1447 1448 1449 1449 1450 1450 1450 1451 1451 1451 1452 1452 1452 1452
1443 1444 1443 1442 1441 1436 1433 1431 1431 1438 1435 1434 1434 1434 1436 1437 1439 1440 1439 1439 1440 1440 1441 1441 1442 1442 1443 1443 1444 1444 1444 1444 1445 1445 1445 1445 1446 1446 1446 1446 1447 1447 1447 1447
1438 1440 1440 1440 1441 1439 1431 1432 1434 1433 1432 1432 1433 1434 1434 1435 1436 1437 1438 1438 1438 1438 1439 1439 1439 1440 1440 1441 1441 1440 1440 1440 1440 1440 1440 1440 1441 1441 1441 1441 1442 1442 1442 1442
1435 1434 1434 1435 1435 1432 1430 1431 1431 1431 1432 1432 1433 1433 1434 1435 1435 1436 1436 1437 1437 1437 1437 1438 1437 1437 1437 1437 1437 1436 1436 1436 1436 1436 1435 1436 1436 1436 1436 1436 1436 1436 1436 1436
1433 1431 1433 1434 1432 1430 1430 1430 1431 1431 1432 1432 1433 1433 1434 1434 1435 1435 1435 1435 1435 1435 1435 1435 1435 1434 1434 1434 1434 1433 1432 1432 1431 1431 1430 1430 1430 1430 1431 1431 1431 1431 1430 1430
1432 1432 1432 1432 1431 1430 1429 1430 1431 1431 1431 1432 1432 1432 1433 1433 1433 1434 1434 1434 1433 1433 1433 1433 1432 1431 1431 1430 1430 1429 1428 1427 1426 1426 1425 1425 1425 1425 1425 1425 1425 1424 1424 1424
1431 1431 1431 1431 1429 1430 1430 1430 1430 1430 1430 1431 1431 1431 1431 1432 1432 1432 1432 1432 1432 1431 1431 1430 1429 1428 1427 1426 1425 1425 1424 1423 1422 1421 1420 1420 1420 1419 1419 1419 1418 1418 1418 1418